• In Lithuania
  • List of Countries
  • For 7 days
  • Water Temperature
  • Satellite Maps
  • Weather Map
  • Weather Widgets
  • user-avatar
    Login

    Hourly Weather Erandol

    Today, 26 September, Wednesday

    Time Temperature Precipitation Wind Pressure Humidity
    00:00 +28°C° 0 mm 1 mps 739 mmHg 76%
    01:00 +27°C° 0 mm 1 mps 738 mmHg 78%
    02:00 +27°C° 0 mm 1 mps 738 mmHg 80%
    03:00 +27°C° 0 mm 1 mps 738 mmHg 81%
    04:00 +27°C° 0 mm 1 mps 738 mmHg 83%
    05:00 +26°C° 0 mm 1 mps 738 mmHg 84%
    06:00 +27°C° 0 mm 1 mps 738 mmHg 79%
    07:00 +28°C° 0 mm 2 mps 739 mmHg 75%
    08:00 +29°C° 0 mm 2 mps 739 mmHg 71%
    09:00 +30°C° 0 mm 2 mps 739 mmHg 65%
    10:00 +32°C° 0 mm 2 mps 739 mmHg 59%
    11:00 +34°C° 0 mm 2 mps 739 mmHg 53%
    12:00 +35°C° 0 mm 2 mps 738 mmHg 50%
    13:00 +36°C° 0 mm 2 mps 738 mmHg 47%
    14:00 +36°C° 0 mm 2 mps 737 mmHg 44%
    15:00 +36°C° 0 mm 2 mps 737 mmHg 46%
    16:00 +36°C° 0 mm 2 mps 737 mmHg 48%
    17:00 +35°C° 0 mm 2 mps 737 mmHg 50%
    18:00 +34°C° 0 mm 2 mps 737 mmHg 53%
    19:00 +32°C° 0 mm 2 mps 737 mmHg 56%
    20:00 +30°C° 0 mm 1 mps 738 mmHg 59%
    21:00 +30°C° 0 mm 1 mps 738 mmHg 61%
    22:00 +29°C° 0 mm 1 mps 738 mmHg 63%
    23:00 +29°C° 0 mm 1 mps 738 mmHg 64%

    Tomorrow, 27 September, Thursday

    Time Temperature Precipitation Wind Pressure Humidity
    00:00 +28°C° 0 mm 1 mps 738 mmHg 66%
    01:00 +28°C° 0 mm 1 mps 737 mmHg 67%
    02:00 +28°C° 0 mm 1 mps 737 mmHg 68%
    03:00 +27°C° 0 mm 1 mps 737 mmHg 69%
    04:00 +27°C° 0 mm 1 mps 737 mmHg 71%
    05:00 +25°C° 0 mm 0 mps 737 mmHg 72%
    06:00 +28°C° 0 mm 1 mps 738 mmHg 68%
    07:00 +29°C° 0 mm 1 mps 739 mmHg 64%
    08:00 +30°C° 0 mm 1 mps 739 mmHg 60%
    09:00 +32°C° 0 mm 1 mps 739 mmHg 56%
    10:00 +33°C° 0 mm 1 mps 739 mmHg 51%
    11:00 +35°C° 0 mm 2 mps 739 mmHg 47%
    12:00 +36°C° 0 mm 2 mps 738 mmHg 44%
    13:00 +36°C° 0 mm 2 mps 737 mmHg 41%
    14:00 +37°C° 0 mm 2 mps 737 mmHg 38%
    15:00 +36°C° 0 mm 2 mps 737 mmHg 40%
    16:00 +36°C° 0 mm 2 mps 737 mmHg 43%
    17:00 +36°C° 0 mm 2 mps 737 mmHg 45%
    18:00 +34°C° 0 mm 2 mps 737 mmHg 47%
    19:00 +32°C° 0 mm 2 mps 738 mmHg 49%
    20:00 +30°C° 0 mm 2 mps 738 mmHg 52%
    21:00 +30°C° 0 mm 2 mps 738 mmHg 53%
    22:00 +29°C° 0 mm 2 mps 738 mmHg 53%
    23:00 +29°C° 0 mm 2 mps 738 mmHg 54%

    Day after tomorrow, 28 September, Friday

    Time Temperature Precipitation Wind Pressure Humidity
    00:00 +28°C° 0 mm 1 mps 738 mmHg 56%
    01:00 +28°C° 0 mm 1 mps 737 mmHg 58%
    02:00 +27°C° 0 mm 1 mps 737 mmHg 60%
    03:00 +25°C° 0 mm 0 mps 737 mmHg 60%
    04:00 +25°C° 0 mm 0 mps 737 mmHg 61%
    05:00 +25°C° 0 mm 0 mps 737 mmHg 61%
    06:00 +26°C° 0 mm 0 mps 738 mmHg 58%
    07:00 +29°C° 0 mm 1 mps 739 mmHg 54%
    08:00 +30°C° 0 mm 1 mps 739 mmHg 51%
    09:00 +32°C° 0 mm 1 mps 739 mmHg 47%
    10:00 +33°C° 0 mm 1 mps 739 mmHg 43%
    11:00 +34°C° 0 mm 1 mps 739 mmHg 39%
    12:00 +35°C° 0 mm 1 mps 739 mmHg 37%
    13:00 +36°C° 0 mm 1 mps 738 mmHg 35%
    14:00 +36°C° 0 mm 1 mps 737 mmHg 33%
    15:00 +37°C° 0 mm 2 mps 737 mmHg 36%
    16:00 +36°C° 0 mm 2 mps 737 mmHg 39%
    17:00 +36°C° 0 mm 2 mps 737 mmHg 42%
    18:00 +34°C° 0 mm 2 mps 738 mmHg 44%
    19:00 +32°C° 0 mm 2 mps 738 mmHg 46%
    20:00 +30°C° 0 mm 2 mps 739 mmHg 47%
    21:00 +30°C° 0 mm 2 mps 739 mmHg 50%
    22:00 +29°C° 0 mm 2 mps 739 mmHg 52%
    23:00 +29°C° 0 mm 1 mps 739 mmHg 55%

    29 September, Saturday

    Time Temperature Precipitation Wind Pressure Humidity
    00:00 +28°C° 0 mm 1 mps 738 mmHg 56%
    01:00 +28°C° 0 mm 1 mps 738 mmHg 58%
    02:00 +26°C° 0 mm 0 mps 738 mmHg 60%
    03:00 +25°C° 0 mm 0 mps 738 mmHg 60%
    04:00 +25°C° 0 mm 0 mps 738 mmHg 61%
    05:00 +25°C° 0 mm 0 mps 738 mmHg 62%
    06:00 +26°C° 0 mm 0 mps 739 mmHg 58%
    07:00 +29°C° 0 mm 1 mps 739 mmHg 54%
    08:00 +30°C° 0 mm 1 mps 740 mmHg 51%
    09:00 +32°C° 0 mm 1 mps 740 mmHg 47%
    10:00 +33°C° 0 mm 1 mps 740 mmHg 43%
    11:00 +36°C° 0 mm 2 mps 740 mmHg 40%
    12:00 +36°C° 0 mm 2 mps 739 mmHg 38%
    13:00 +36°C° 0 mm 1 mps 738 mmHg 36%
    14:00 +36°C° 0 mm 1 mps 737 mmHg 34%
    15:00 +36°C° 0 mm 1 mps 737 mmHg 37%
    16:00 +36°C° 0 mm 2 mps 737 mmHg 39%
    17:00 +36°C° 0 mm 2 mps 737 mmHg 42%
    18:00 +35°C° 0 mm 2 mps 738 mmHg 43%
    19:00 +32°C° 0 mm 2 mps 738 mmHg 45%
    20:00 +31°C° 0 mm 2 mps 739 mmHg 46%
    21:00 +30°C° 0 mm 2 mps 739 mmHg 48%
    22:00 +30°C° 0 mm 2 mps 739 mmHg 51%
    23:00 +29°C° 0 mm 1 mps 739 mmHg 53%

    30 September, Sunday

    Time Temperature Precipitation Wind Pressure Humidity
    00:00 +29°C° 0 mm 1 mps 738 mmHg 54%
    01:00 +28°C° 0 mm 1 mps 738 mmHg 55%
    02:00 +26°C° 0 mm 0 mps 737 mmHg 57%
    03:00 +26°C° 0 mm 0 mps 737 mmHg 57%
    04:00 +25°C° 0 mm 0 mps 737 mmHg 58%
    05:00 +25°C° 0 mm 0 mps 737 mmHg 59%
    06:00 +26°C° 0 mm 0 mps 738 mmHg 56%
    07:00 +30°C° 0 mm 1 mps 739 mmHg 52%
    08:00 +31°C° 0 mm 1 mps 739 mmHg 49%
    09:00 +32°C° 0 mm 1 mps 739 mmHg 45%
    10:00 +34°C° 0 mm 1 mps 739 mmHg 42%
    11:00 +35°C° 0 mm 1 mps 739 mmHg 38%
    12:00 +36°C° 0 mm 1 mps 738 mmHg 36%
    13:00 +37°C° 0 mm 2 mps 737 mmHg 35%
    14:00 +38°C° 0 mm 2 mps 736 mmHg 33%
    15:00 +37°C° 0 mm 2 mps 736 mmHg 36%
    16:00 +37°C° 0 mm 2 mps 736 mmHg 38%
    17:00 +36°C° 0 mm 2 mps 736 mmHg 41%
    18:00 +35°C° 0 mm 2 mps 737 mmHg 43%
    19:00 +34°C° 0 mm 2 mps 737 mmHg 44%
    20:00 +31°C° 0 mm 2 mps 738 mmHg 46%
    21:00 +31°C° 0 mm 2 mps 738 mmHg 49%
    22:00 +30°C° 0 mm 1 mps 738 mmHg 51%
    23:00 +30°C° 0 mm 1 mps 738 mmHg 53%

    1 October, Monday

    Time Temperature Precipitation Wind Pressure Humidity
    00:00 +29°C° 0 mm 1 mps 737 mmHg 55%
    01:00 +29°C° 0 mm 1 mps 737 mmHg 56%
    02:00 +26°C° 0 mm 0 mps 736 mmHg 58%
    03:00 +26°C° 0 mm 0 mps 736 mmHg 59%
    04:00 +26°C° 0 mm 0 mps 737 mmHg 59%
    05:00 +26°C° 0 mm 0 mps 737 mmHg 60%
    06:00 +29°C° 0 mm 1 mps 737 mmHg 57%
    07:00 +30°C° 0 mm 1 mps 738 mmHg 53%
    08:00 +31°C° 0 mm 1 mps 739 mmHg 50%
    09:00 +33°C° 0 mm 1 mps 739 mmHg 46%
    10:00 +35°C° 0 mm 2 mps 738 mmHg 43%
    11:00 +37°C° 0 mm 2 mps 738 mmHg 39%
    12:00 +37°C° 0 mm 2 mps 738 mmHg 37%
    13:00 +38°C° 0 mm 2 mps 737 mmHg 36%
    14:00 +38°C° 0 mm 2 mps 736 mmHg 34%
    15:00 +38°C° 0 mm 2 mps 736 mmHg 36%
    16:00 +37°C° 0 mm 2 mps 736 mmHg 39%
    17:00 +37°C° 0 mm 2 mps 736 mmHg 41%
    18:00 +35°C° 0 mm 2 mps 737 mmHg 43%
    19:00 +34°C° 0 mm 2 mps 737 mmHg 44%
    20:00 +32°C° 0 mm 2 mps 738 mmHg 46%
    21:00 +31°C° 0 mm 2 mps 738 mmHg 47%
    22:00 +31°C° 0 mm 2 mps 738 mmHg 49%
    23:00 +30°C° 0 mm 2 mps 738 mmHg 51%
    Show more